Year,Month,Day,Hour,Minute,Value (Times are PST for temperature in C)
2014,09,23,00,00,13.30
2014,09,23,00,01,13.30
2014,09,23,00,02,13.30
2014,09,23,00,03,13.30
2014,09,23,00,04,13.30
2014,09,23,00,05,13.30
2014,09,23,00,06,13.30
2014,09,23,00,07,13.30
2014,09,23,00,08,13.30
2014,09,23,00,09,13.30
2014,09,23,00,10,13.30
2014,09,23,00,11,13.30
2014,09,23,00,12,13.30
2014,09,23,00,13,13.30
2014,09,23,00,14,13.30
2014,09,23,00,15,13.30
2014,09,23,00,16,13.30
2014,09,23,00,17,13.30
2014,09,23,00,18,13.30
2014,09,23,00,19,13.40
2014,09,23,00,20,13.40
2014,09,23,00,21,13.40
2014,09,23,00,22,13.40
2014,09,23,00,23,13.40
2014,09,23,00,24,13.40
2014,09,23,00,25,13.40
2014,09,23,00,26,13.40
2014,09,23,00,27,13.40
2014,09,23,00,28,13.40
2014,09,23,00,29,13.40
2014,09,23,00,30,13.50
2014,09,23,00,31,13.50
2014,09,23,00,32,13.50
2014,09,23,00,33,13.50
2014,09,23,00,34,13.50
2014,09,23,00,35,13.50
2014,09,23,00,36,13.50
2014,09,23,00,37,13.60
2014,09,23,00,38,13.60
2014,09,23,00,39,13.60
2014,09,23,00,40,13.60
2014,09,23,00,41,13.60
2014,09,23,00,42,13.60
2014,09,23,00,43,13.60
2014,09,23,00,44,13.60
2014,09,23,00,45,13.60
2014,09,23,00,46,13.70
2014,09,23,00,47,13.70
2014,09,23,00,48,13.70
2014,09,23,00,49,13.70
2014,09,23,00,50,13.70
2014,09,23,00,51,13.70
2014,09,23,00,52,13.70
2014,09,23,00,53,13.70
2014,09,23,00,54,13.70
2014,09,23,00,55,13.70
2014,09,23,00,56,13.70
2014,09,23,00,57,13.70
2014,09,23,00,58,13.70
2014,09,23,00,59,13.80
2014,09,23,01,00,13.80
2014,09,23,01,01,13.80
2014,09,23,01,02,13.80
2014,09,23,01,03,13.80
2014,09,23,01,04,13.80
2014,09,23,01,05,13.80
2014,09,23,01,06,13.80
2014,09,23,01,07,13.80
2014,09,23,01,08,13.80
2014,09,23,01,09,13.80
2014,09,23,01,10,13.80
2014,09,23,01,11,13.80
2014,09,23,01,12,13.90
2014,09,23,01,13,13.90
2014,09,23,01,14,13.90
2014,09,23,01,15,13.90
2014,09,23,01,16,13.90
2014,09,23,01,17,14.00
2014,09,23,01,18,14.00
2014,09,23,01,19,14.00
2014,09,23,01,20,14.00
2014,09,23,01,21,14.00
2014,09,23,01,22,14.00
2014,09,23,01,23,14.00
2014,09,23,01,24,14.00
2014,09,23,01,25,14.10
2014,09,23,01,26,14.10
2014,09,23,01,27,14.10
2014,09,23,01,28,14.10
2014,09,23,01,29,14.10
2014,09,23,01,30,14.10
2014,09,23,01,31,14.10
2014,09,23,01,32,14.10
2014,09,23,01,33,14.10
2014,09,23,01,34,14.10
2014,09,23,01,35,14.10
2014,09,23,01,36,14.10
2014,09,23,01,37,14.10
2014,09,23,01,38,14.10
2014,09,23,01,39,14.00
2014,09,23,01,40,14.00
2014,09,23,01,41,14.00
2014,09,23,01,42,14.00
2014,09,23,01,43,14.00
2014,09,23,01,44,14.00
2014,09,23,01,45,14.00
2014,09,23,01,46,14.00
2014,09,23,01,47,14.10
2014,09,23,01,48,14.10
2014,09,23,01,49,14.10
2014,09,23,01,50,14.10
2014,09,23,01,51,14.10
2014,09,23,01,52,14.10
2014,09,23,01,53,14.10
2014,09,23,01,54,14.10
2014,09,23,01,55,14.20
2014,09,23,01,56,14.20
2014,09,23,01,57,14.20
2014,09,23,01,58,14.20
2014,09,23,01,59,14.20
2014,09,23,02,00,14.20
2014,09,23,02,01,14.30
2014,09,23,02,02,14.30
2014,09,23,02,03,14.30
2014,09,23,02,04,14.30
2014,09,23,02,05,14.30
2014,09,23,02,06,14.30
2014,09,23,02,07,14.40
2014,09,23,02,08,14.40
2014,09,23,02,09,14.40
2014,09,23,02,10,14.40
2014,09,23,02,11,14.40
2014,09,23,02,12,14.40
2014,09,23,02,13,14.50
2014,09,23,02,14,14.50
2014,09,23,02,15,14.50
2014,09,23,02,16,14.60
2014,09,23,02,17,14.60
2014,09,23,02,18,14.60
2014,09,23,02,19,14.60
2014,09,23,02,20,14.60
2014,09,23,02,21,14.60
2014,09,23,02,22,14.70
2014,09,23,02,23,14.70
2014,09,23,02,24,14.70
2014,09,23,02,25,14.70
2014,09,23,02,26,14.70
2014,09,23,02,27,14.70
2014,09,23,02,28,14.70
2014,09,23,02,29,14.70
2014,09,23,02,30,14.70
2014,09,23,02,31,14.70
2014,09,23,02,32,14.70
2014,09,23,02,33,14.70
2014,09,23,02,34,14.70
2014,09,23,02,35,14.70
2014,09,23,02,36,14.70
2014,09,23,02,37,14.70
2014,09,23,02,38,14.70
2014,09,23,02,39,14.70
2014,09,23,02,40,14.70
2014,09,23,02,41,14.70
2014,09,23,02,42,14.70
2014,09,23,02,43,14.70
2014,09,23,02,44,14.60
2014,09,23,02,45,14.60
2014,09,23,02,46,14.60
2014,09,23,02,47,14.60
2014,09,23,02,48,14.60
2014,09,23,02,49,14.60
2014,09,23,02,50,14.50
2014,09,23,02,51,14.50
2014,09,23,02,52,14.50
2014,09,23,02,53,14.50
2014,09,23,02,54,14.50
2014,09,23,02,55,14.50
2014,09,23,02,56,14.50
2014,09,23,02,57,14.50
2014,09,23,02,58,14.50
2014,09,23,02,59,14.50
2014,09,23,03,00,14.50
2014,09,23,03,01,14.60
2014,09,23,03,02,14.60
2014,09,23,03,03,14.60
2014,09,23,10,04,14.60
2014,09,23,10,05,14.60
2014,09,23,10,06,14.60
2014,09,23,10,07,14.60
2014,09,23,10,08,14.70
2014,09,23,10,09,14.70
2014,09,23,10,10,14.70
2014,09,23,10,11,14.70
2014,09,23,10,12,14.70
2014,09,23,10,13,14.70
2014,09,23,10,14,14.70
2014,09,23,10,15,14.70
2014,09,23,10,16,14.70
2014,09,23,10,17,14.70
2014,09,23,10,18,14.70
2014,09,23,10,19,14.70
2014,09,23,10,20,14.70
2014,09,23,10,21,14.70
2014,09,23,10,22,14.70
2014,09,23,10,23,14.70
2014,09,23,10,24,14.70
2014,09,23,10,25,14.70
2014,09,23,10,26,14.70
2014,09,23,10,27,14.70
2014,09,23,10,28,14.70
2014,09,23,10,29,14.70
2014,09,23,10,30,14.70
2014,09,23,10,31,14.70
2014,09,23,10,32,14.70
2014,09,23,10,33,14.70
2014,09,23,10,34,14.70
2014,09,23,10,35,14.70
2014,09,23,10,36,14.70
2014,09,23,10,37,14.70
2014,09,23,10,38,14.70
2014,09,23,10,39,14.70
2014,09,23,10,40,14.70
2014,09,23,10,41,14.70
2014,09,23,10,42,14.70
2014,09,23,10,43,14.70
2014,09,23,10,44,14.70
2014,09,23,10,45,14.70
2014,09,23,10,46,14.70
2014,09,23,10,47,14.70
2014,09,23,10,48,14.70
2014,09,23,10,49,14.70
2014,09,23,10,50,14.70
2014,09,23,10,51,14.80
2014,09,23,10,52,14.80
2014,09,23,10,53,14.80
2014,09,23,10,54,14.80
2014,09,23,10,55,14.80
2014,09,23,10,56,14.80
2014,09,23,10,57,14.80
2014,09,23,10,58,14.80
2014,09,23,10,59,14.70
2014,09,23,11,00,14.70
2014,09,23,11,01,14.70
2014,09,23,11,02,14.70
2014,09,23,11,03,14.70
2014,09,23,11,04,14.70
2014,09,23,11,05,14.70
2014,09,23,11,06,14.70
2014,09,23,11,07,14.70
2014,09,23,11,08,14.70
2014,09,23,11,09,14.70
2014,09,23,11,10,14.70
2014,09,23,11,11,14.70
2014,09,23,11,12,14.70
2014,09,23,11,13,14.70
2014,09,23,11,14,14.70
2014,09,23,11,15,14.80
2014,09,23,11,16,14.80
2014,09,23,11,17,14.80
2014,09,23,11,18,14.80
2014,09,23,11,19,14.80
2014,09,23,11,20,14.80
2014,09,23,11,21,14.80
2014,09,23,11,22,14.80
2014,09,23,11,23,14.80
2014,09,23,11,24,14.80
2014,09,23,11,25,14.80
2014,09,23,11,26,14.90
2014,09,23,11,27,14.80
2014,09,23,11,28,14.80
2014,09,23,11,29,14.90
2014,09,23,11,30,14.90
2014,09,23,11,31,14.90
2014,09,23,11,32,14.90
2014,09,23,11,33,14.90
2014,09,23,11,34,14.90
2014,09,23,11,35,14.90
2014,09,23,11,36,14.90
2014,09,23,11,37,14.90
2014,09,23,11,38,14.90
2014,09,23,11,39,14.90
2014,09,23,11,40,14.90
2014,09,23,11,41,15.00
2014,09,23,11,42,15.00
2014,09,23,11,43,15.00
2014,09,23,11,44,15.10
2014,09,23,11,45,15.10
2014,09,23,11,46,15.10
2014,09,23,11,47,15.10
2014,09,23,11,48,15.10
2014,09,23,11,49,15.10
2014,09,23,11,50,15.10
2014,09,23,11,51,15.20
2014,09,23,11,52,15.20
2014,09,23,11,53,15.20
2014,09,23,11,54,15.20
2014,09,23,11,55,15.20
2014,09,23,11,56,15.20
2014,09,23,11,57,15.30
2014,09,23,11,58,15.30
2014,09,23,11,59,15.30
2014,09,23,12,00,15.30
2014,09,23,12,01,15.30
2014,09,23,12,02,15.30
2014,09,23,12,03,15.30
2014,09,23,12,04,15.30
2014,09,23,12,05,15.30
2014,09,23,12,06,15.30
2014,09,23,12,07,15.30
2014,09,23,12,08,15.30
2014,09,23,12,09,15.30
2014,09,23,12,10,15.30
2014,09,23,12,11,15.30
2014,09,23,12,12,15.30
2014,09,23,12,13,15.30
2014,09,23,12,14,15.30
2014,09,23,12,15,15.30
2014,09,23,12,16,15.30
2014,09,23,12,17,15.30
2014,09,23,12,18,15.30
2014,09,23,12,19,15.30
2014,09,23,12,20,15.30
2014,09,23,12,21,15.30
2014,09,23,12,22,15.30
2014,09,23,12,23,15.30
2014,09,23,12,24,15.30
2014,09,23,12,25,15.30
2014,09,23,12,26,15.30
2014,09,23,12,27,15.30
2014,09,23,12,28,15.30
2014,09,23,12,29,15.30
2014,09,23,12,30,15.30
2014,09,23,12,31,15.40
2014,09,23,12,32,15.40
2014,09,23,12,33,15.40
2014,09,23,12,34,15.40
2014,09,23,12,35,15.40
2014,09,23,12,36,15.40
2014,09,23,12,37,15.40
2014,09,23,12,38,15.40
2014,09,23,12,39,15.30
2014,09,23,12,40,15.30
2014,09,23,12,41,15.30
2014,09,23,12,42,15.30
2014,09,23,12,43,15.30
2014,09,23,12,44,15.30
2014,09,23,12,45,15.30
2014,09,23,12,46,15.30
2014,09,23,12,47,15.30
2014,09,23,12,48,15.30
2014,09,23,12,49,15.30
2014,09,23,12,50,15.30
2014,09,23,12,51,15.30
2014,09,23,12,52,15.30
2014,09,23,12,53,15.30
2014,09,23,12,54,15.30
2014,09,23,12,55,15.30
2014,09,23,12,56,15.30
2014,09,23,12,57,15.30
2014,09,23,12,58,15.30
2014,09,23,12,59,15.30
2014,09,23,13,00,15.30
2014,09,23,13,01,15.40
2014,09,23,13,02,15.40
2014,09,23,13,03,15.40
2014,09,23,13,04,15.40
2014,09,23,13,05,15.40
2014,09,23,13,06,15.40
2014,09,23,13,07,15.40
2014,09,23,13,08,15.50
2014,09,23,13,09,15.50
2014,09,23,13,10,15.50
2014,09,23,13,11,15.60
2014,09,23,13,12,15.60
2014,09,23,13,13,15.60
2014,09,23,13,14,15.60
2014,09,23,13,15,15.60
2014,09,23,13,16,15.60
2014,09,23,13,17,15.60
2014,09,23,13,18,15.60
2014,09,23,13,19,15.60
2014,09,23,13,20,15.60
2014,09,23,13,21,15.60
2014,09,23,13,22,15.50
2014,09,23,13,23,15.50
2014,09,23,13,24,15.50
2014,09,23,13,25,15.50
2014,09,23,13,26,15.50
2014,09,23,13,27,15.50
2014,09,23,13,28,15.50
2014,09,23,13,29,15.50
2014,09,23,13,30,15.50
2014,09,23,13,31,15.50
2014,09,23,13,32,15.50
2014,09,23,13,33,15.50
2014,09,23,13,34,15.50
2014,09,23,13,35,15.50
2014,09,23,13,36,15.50
2014,09,23,13,37,15.50
2014,09,23,13,38,15.50
2014,09,23,13,39,15.40
2014,09,23,13,40,15.40
2014,09,23,13,41,15.40
2014,09,23,13,42,15.40
2014,09,23,13,43,15.40
2014,09,23,13,44,15.40
2014,09,23,13,45,15.40
2014,09,23,13,46,15.40
2014,09,23,13,47,15.40
2014,09,23,13,48,15.40
2014,09,23,13,49,15.40
2014,09,23,13,50,15.40
2014,09,23,13,51,15.40
2014,09,23,13,52,15.40
2014,09,23,13,53,15.40
2014,09,23,13,54,15.40
2014,09,23,13,55,15.40
2014,09,23,13,56,15.40
2014,09,23,13,57,15.40
2014,09,23,13,58,15.40
2014,09,23,13,59,15.40
2014,09,23,14,00,15.40
2014,09,23,14,01,15.40
2014,09,23,14,02,15.40
2014,09,23,14,03,15.40
2014,09,23,14,04,15.40
2014,09,23,14,05,15.40
2014,09,23,14,06,15.40
2014,09,23,14,07,15.40
2014,09,23,14,08,15.40
2014,09,23,14,09,15.40
2014,09,23,14,10,15.40
2014,09,23,14,11,15.40
2014,09,23,14,12,15.40
2014,09,23,14,13,15.40
2014,09,23,14,14,15.40
2014,09,23,14,15,15.40
2014,09,23,14,16,15.40
2014,09,23,14,17,15.40
2014,09,23,14,18,15.40
2014,09,23,14,19,15.40
2014,09,23,14,20,15.40
2014,09,23,14,21,15.40
2014,09,23,14,22,15.40
2014,09,23,14,23,15.40
2014,09,23,14,24,15.40
2014,09,23,14,25,15.40
2014,09,23,14,26,15.40
2014,09,23,14,27,15.40
2014,09,23,14,28,15.30
2014,09,23,14,29,15.30
2014,09,23,14,30,15.30
2014,09,23,14,31,15.30
2014,09,23,14,32,15.30
2014,09,23,14,33,15.30
2014,09,23,14,34,15.30
2014,09,23,14,35,15.30
2014,09,23,14,36,15.30
2014,09,23,14,37,15.30
2014,09,23,14,38,15.20
2014,09,23,14,39,15.20
2014,09,23,14,40,15.20
2014,09,23,14,41,15.20
2014,09,23,14,42,15.20
2014,09,23,14,43,15.20
2014,09,23,14,44,15.10
2014,09,23,14,45,15.10
2014,09,23,14,46,15.10
2014,09,23,14,47,15.10
2014,09,23,14,48,15.10
2014,09,23,14,49,15.10
2014,09,23,14,50,15.10
2014,09,23,14,51,15.10
2014,09,23,14,52,15.10
2014,09,23,14,53,15.10
2014,09,23,14,54,15.10
2014,09,23,14,55,15.10
2014,09,23,14,56,15.10
2014,09,23,14,57,15.10
2014,09,23,14,58,15.10
2014,09,23,14,59,15.10
2014,09,23,15,00,15.10
2014,09,23,15,01,15.10
2014,09,23,15,02,15.10
2014,09,23,15,03,15.10
2014,09,23,15,04,15.10
2014,09,23,15,05,15.10
2014,09,23,15,06,15.20
2014,09,23,15,07,15.20
2014,09,23,15,08,15.20
2014,09,23,15,09,15.20
2014,09,23,15,10,15.20
2014,09,23,15,11,15.20
2014,09,23,15,12,15.20
2014,09,23,15,13,15.30
2014,09,23,15,14,15.30
2014,09,23,15,15,15.40
2014,09,23,15,16,15.40
2014,09,23,15,17,15.40
2014,09,23,15,18,15.50
2014,09,23,15,19,15.50
2014,09,23,15,20,15.60
2014,09,23,15,21,15.60
2014,09,23,15,22,15.70
2014,09,23,15,23,15.70
2014,09,23,15,24,15.80
2014,09,23,15,25,15.80
2014,09,23,15,26,15.80
2014,09,23,15,27,15.80
2014,09,23,15,28,15.80
2014,09,23,15,29,15.80
2014,09,23,15,30,15.90
2014,09,23,15,31,15.90
2014,09,23,15,32,15.90
2014,09,23,15,33,16.00
2014,09,23,15,34,16.00
2014,09,23,15,35,16.10
2014,09,23,15,36,16.10
2014,09,23,15,37,16.10
2014,09,23,15,38,16.10
2014,09,23,15,39,16.10
2014,09,23,15,40,16.10
2014,09,23,15,41,16.20
2014,09,23,15,42,16.20
2014,09,23,15,43,16.20
2014,09,23,15,44,16.20
2014,09,23,15,45,16.20
2014,09,23,15,46,16.20
2014,09,23,15,47,16.20
2014,09,23,15,48,16.20
2014,09,23,15,49,16.20
2014,09,23,15,50,16.20
2014,09,23,15,51,16.20
2014,09,23,15,52,16.20
2014,09,23,15,53,16.20
2014,09,23,15,54,16.20
2014,09,23,15,55,16.20
2014,09,23,15,56,16.20
2014,09,23,15,57,16.10
2014,09,23,15,58,16.10
2014,09,23,15,59,16.10
2014,09,23,16,00,16.10
2014,09,23,16,01,16.10
2014,09,23,16,02,16.10
2014,09,23,16,03,16.00
2014,09,23,16,04,16.00
2014,09,23,16,05,16.00
2014,09,23,16,06,15.90
2014,09,23,16,07,15.90
2014,09,23,16,08,15.90
2014,09,23,16,09,15.90
2014,09,23,16,10,15.90
2014,09,23,16,11,15.90
2014,09,23,16,12,15.90
2014,09,23,16,13,15.80
2014,09,23,16,14,15.80
2014,09,23,16,15,15.80
2014,09,23,16,16,15.80
2014,09,23,16,17,15.80
2014,09,23,16,18,15.80
2014,09,23,16,19,15.80
2014,09,23,16,20,15.80
2014,09,23,16,21,15.80
2014,09,23,16,22,15.80
2014,09,23,16,23,15.80
2014,09,23,16,24,15.80
2014,09,23,16,25,15.70
2014,09,23,16,26,15.70
2014,09,23,16,27,15.70
2014,09,23,16,28,15.70
2014,09,23,16,29,15.70
2014,09,23,16,30,15.70
2014,09,23,16,31,15.70
2014,09,23,16,32,15.70
2014,09,23,16,33,15.70
2014,09,23,16,34,15.70
2014,09,23,16,35,15.70
2014,09,23,16,36,15.70
2014,09,23,16,37,15.70
2014,09,23,16,38,15.70
2014,09,23,16,39,15.70
2014,09,23,16,40,15.70
2014,09,23,16,41,15.70
2014,09,23,16,42,15.70
2014,09,23,16,43,15.70
2014,09,23,16,44,15.70
2014,09,23,16,45,15.70
2014,09,23,16,46,15.70
2014,09,23,16,47,15.70
2014,09,23,16,48,15.70
2014,09,23,16,49,15.70
2014,09,23,16,50,15.70
2014,09,23,16,51,15.70
2014,09,23,16,52,15.70
2014,09,23,16,53,15.70
2014,09,23,16,54,15.70
2014,09,23,16,55,15.70
2014,09,23,16,56,15.70
2014,09,23,16,57,15.70
2014,09,23,16,58,15.70
2014,09,23,16,59,15.70
2014,09,23,17,00,15.70
2014,09,23,17,01,15.70
2014,09,23,17,02,15.70
2014,09,23,17,03,15.70
2014,09,23,17,04,15.70
2014,09,23,17,05,15.70
2014,09,23,17,06,15.70
2014,09,23,17,07,15.70
2014,09,23,17,08,15.70
2014,09,23,17,09,15.70
2014,09,23,17,10,15.70
2014,09,23,17,11,15.70
2014,09,23,17,12,15.70
2014,09,23,17,13,15.80
2014,09,23,17,14,15.80
2014,09,23,17,15,15.80
2014,09,23,17,16,15.80
2014,09,23,17,17,15.80
2014,09,23,17,18,15.80
2014,09,23,17,19,15.80
2014,09,23,17,20,15.80
2014,09,23,17,21,15.80
2014,09,23,17,22,15.80
2014,09,23,17,23,15.80
2014,09,23,17,24,15.80
2014,09,23,17,25,15.80
2014,09,23,17,26,15.80
2014,09,23,17,27,15.80
2014,09,23,17,28,15.80
2014,09,23,17,29,15.80
2014,09,23,17,30,15.80
2014,09,23,17,31,15.80
2014,09,23,17,32,15.80
2014,09,23,17,33,15.80
2014,09,23,17,34,15.80
2014,09,23,17,35,15.80
2014,09,23,17,36,15.80
2014,09,23,17,37,15.80
2014,09,23,17,38,15.80
2014,09,23,17,39,15.80
2014,09,23,17,40,15.80
2014,09,23,17,41,15.80
2014,09,23,17,42,15.80
2014,09,23,17,43,15.80
2014,09,23,17,44,15.80
2014,09,23,17,45,15.80
2014,09,23,17,46,15.80
2014,09,23,17,47,15.80
2014,09,23,17,48,15.80
2014,09,23,17,49,15.80
2014,09,23,17,50,15.80
2014,09,23,17,51,15.80
2014,09,23,17,52,15.80
2014,09,23,17,53,15.80
2014,09,23,17,54,15.80
2014,09,23,17,55,15.80
2014,09,23,17,56,15.80
2014,09,23,17,57,15.80
2014,09,23,17,58,15.80
2014,09,23,17,59,15.80
2014,09,23,18,00,15.80
2014,09,23,18,01,15.80
2014,09,23,18,02,15.80
2014,09,23,18,03,15.80
2014,09,23,18,04,15.80
2014,09,23,18,05,15.80
2014,09,23,18,06,15.80
2014,09,23,18,07,15.80
2014,09,23,18,08,15.70
2014,09,23,18,09,15.70
2014,09,23,18,10,15.70
2014,09,23,18,11,15.70
2014,09,23,18,12,15.70
2014,09,23,18,13,15.70
2014,09,23,18,14,15.70
2014,09,23,18,15,15.70
2014,09,23,18,16,15.70
2014,09,23,18,17,15.70
2014,09,23,18,18,15.70
2014,09,23,18,19,15.70
2014,09,23,18,20,15.70
2014,09,23,18,21,15.70
2014,09,23,18,22,15.70
2014,09,23,18,23,15.70
2014,09,23,18,24,15.70
2014,09,23,18,25,15.70
2014,09,23,18,26,15.70
2014,09,23,18,27,15.70
2014,09,23,18,28,15.70
2014,09,23,18,29,15.70
2014,09,23,18,30,15.70
2014,09,23,18,31,15.70
2014,09,23,18,32,15.70
2014,09,23,18,33,15.70
2014,09,23,18,34,15.70
2014,09,23,18,35,15.70
2014,09,23,18,36,15.70
2014,09,23,18,37,15.70
2014,09,23,18,38,15.70
2014,09,23,18,39,15.80
2014,09,23,18,40,15.80
2014,09,23,18,41,15.80
2014,09,23,18,42,15.80
2014,09,23,18,43,15.80
2014,09,23,18,44,15.80
2014,09,23,18,45,15.80
2014,09,23,18,46,15.80
2014,09,23,18,47,15.80
2014,09,23,18,48,15.80
2014,09,23,18,49,15.90
2014,09,23,18,50,15.90
2014,09,23,18,51,15.90
2014,09,23,18,52,15.90
2014,09,23,18,53,15.90
2014,09,23,18,54,15.90
2014,09,23,18,55,15.90
2014,09,23,18,56,15.90
2014,09,23,18,57,15.90
2014,09,23,18,58,15.90
2014,09,23,18,59,16.00
2014,09,23,19,00,16.00
2014,09,23,19,01,16.00
2014,09,23,19,02,16.00
2014,09,23,19,03,16.00
2014,09,23,19,04,15.90
2014,09,23,19,05,15.90
2014,09,23,19,06,15.90
2014,09,23,19,07,15.90
2014,09,23,19,08,15.90
2014,09,23,19,09,15.90
2014,09,23,19,10,15.90
2014,09,23,19,11,15.90
2014,09,23,19,12,15.90
2014,09,23,19,13,15.90
2014,09,23,19,14,15.80
2014,09,23,19,15,15.80
2014,09,23,19,16,15.80
2014,09,23,19,17,15.80
2014,09,23,19,18,15.80
2014,09,23,19,19,15.80
2014,09,23,19,20,15.80
2014,09,23,19,21,15.80
2014,09,23,19,22,15.70
2014,09,23,19,23,15.70
2014,09,23,19,24,15.60
2014,09,23,19,25,15.60
2014,09,23,19,26,15.60
2014,09,23,19,27,15.50
2014,09,23,19,28,15.50
2014,09,23,19,29,15.50
2014,09,23,19,30,15.50
2014,09,23,19,31,15.40
2014,09,23,19,32,15.50
2014,09,23,19,33,15.50
2014,09,23,19,34,15.40
2014,09,23,19,35,15.50
2014,09,23,19,36,15.40
2014,09,23,19,37,15.40
2014,09,23,19,38,15.40
2014,09,23,19,39,15.40
2014,09,23,19,40,15.40
2014,09,23,19,41,15.50
2014,09,23,19,42,15.50
2014,09,23,19,43,15.60
2014,09,23,19,44,15.60
2014,09,23,19,45,15.60
2014,09,23,19,46,15.70
2014,09,23,19,47,15.70
2014,09,23,19,48,15.70
2014,09,23,19,49,15.80
2014,09,23,19,50,15.80
2014,09,23,19,51,15.80
2014,09,23,19,52,15.80
2014,09,23,19,53,15.90
2014,09,23,19,54,15.90
2014,09,23,19,55,15.90
2014,09,23,19,56,15.90
2014,09,23,19,57,15.90
2014,09,23,19,58,15.90
2014,09,23,19,59,15.90
2014,09,23,20,00,15.90
2014,09,23,20,01,15.90
2014,09,23,20,02,15.80
2014,09,23,20,03,15.80
2014,09,23,20,04,15.80
2014,09,23,20,05,15.80
2014,09,23,20,06,15.80
2014,09,23,20,07,15.80
2014,09,23,20,08,15.80
2014,09,23,20,09,15.80
2014,09,23,20,10,15.80
2014,09,23,20,11,15.80
2014,09,23,20,12,15.80
2014,09,23,20,13,15.80
2014,09,23,20,14,15.80
2014,09,23,20,15,15.80
2014,09,23,20,16,15.80
2014,09,23,20,17,15.80
2014,09,23,20,18,15.70
2014,09,23,20,19,15.70
2014,09,23,20,20,15.70
2014,09,23,20,21,15.70
2014,09,23,20,22,15.70
2014,09,23,20,23,15.70
2014,09,23,20,24,15.70
2014,09,23,20,25,15.70
2014,09,23,20,26,15.60
2014,09,23,20,27,15.60
2014,09,23,20,28,15.60
2014,09,23,20,29,15.60
2014,09,23,20,30,15.60
2014,09,23,20,31,15.60
2014,09,23,20,32,15.60
2014,09,23,20,33,15.50
2014,09,23,20,34,15.50
2014,09,23,20,35,15.50
2014,09,23,20,36,15.40
2014,09,23,20,37,15.40
2014,09,23,20,38,15.40
2014,09,23,20,39,15.40
2014,09,23,20,40,15.40
2014,09,23,20,41,15.40
2014,09,23,20,42,15.30
2014,09,23,20,43,15.30
2014,09,23,20,44,15.30
2014,09,23,20,45,15.30
2014,09,23,20,46,15.30
2014,09,23,20,47,15.30
2014,09,23,20,48,15.30
2014,09,23,20,49,15.30
2014,09,23,20,50,15.30
2014,09,23,20,51,15.30
2014,09,23,20,52,15.30
2014,09,23,20,53,15.30
2014,09,23,20,54,15.30
2014,09,23,20,55,15.30
2014,09,23,20,56,15.30
2014,09,23,20,57,15.30
2014,09,23,20,58,15.30
2014,09,23,20,59,15.30
2014,09,23,21,00,15.30
2014,09,23,21,01,15.30
2014,09,23,21,02,15.30
2014,09,23,21,03,15.30
2014,09,23,21,04,15.30
2014,09,23,21,05,15.30
2014,09,23,21,06,15.30
2014,09,23,21,07,15.30
2014,09,23,21,08,15.30
2014,09,23,21,09,15.30
2014,09,23,21,10,15.30
2014,09,23,21,11,15.30
2014,09,23,21,12,15.30
2014,09,23,21,13,15.30
2014,09,23,21,14,15.30
2014,09,23,21,15,15.30
2014,09,23,21,16,15.30
2014,09,23,21,17,15.30
2014,09,23,21,18,15.30
2014,09,23,21,19,15.40
2014,09,23,21,20,15.40
2014,09,23,21,21,15.40
2014,09,23,21,22,15.40
2014,09,23,21,23,15.40
2014,09,23,21,24,15.40
2014,09,23,21,25,15.40
2014,09,23,21,26,15.40
2014,09,23,21,27,15.40
2014,09,23,21,28,15.40
2014,09,23,21,29,15.40
2014,09,23,21,30,15.40
2014,09,23,21,31,15.40
2014,09,23,21,32,15.40
2014,09,23,21,33,15.40
2014,09,23,21,34,15.40
2014,09,23,21,35,15.40
2014,09,23,21,36,15.40
2014,09,23,21,37,15.40
2014,09,23,21,38,15.40
2014,09,23,21,39,15.40
2014,09,23,21,40,15.30
2014,09,23,21,41,15.40
2014,09,23,21,42,15.40
2014,09,23,21,43,15.40
2014,09,23,21,44,15.40
2014,09,23,21,45,15.40
2014,09,23,21,46,15.40
2014,09,23,21,47,15.30
2014,09,23,21,48,15.30
2014,09,23,21,49,15.30
2014,09,23,21,50,15.30
2014,09,23,21,51,15.30
2014,09,23,21,52,15.30
2014,09,23,21,53,15.30
2014,09,23,21,54,15.30
2014,09,23,21,55,15.30
2014,09,23,21,56,15.30
2014,09,23,21,57,15.30
2014,09,23,21,58,15.20
2014,09,23,21,59,15.20
2014,09,23,22,00,15.20
2014,09,23,22,01,15.20
2014,09,23,22,02,15.20
2014,09,23,22,03,15.20
2014,09,23,22,04,15.20
2014,09,23,22,05,15.20
2014,09,23,22,06,15.20
2014,09,23,22,07,15.10
2014,09,23,22,08,15.10
2014,09,23,22,09,15.10
2014,09,23,22,10,15.10
2014,09,23,22,11,15.10
2014,09,23,22,12,15.10
2014,09,23,22,13,15.10
2014,09,23,22,14,15.10
2014,09,23,22,15,15.10
2014,09,23,22,16,15.10
2014,09,23,22,17,15.10
2014,09,23,22,18,15.10
2014,09,23,22,19,15.10
2014,09,23,22,20,15.10
2014,09,23,22,21,15.10
2014,09,23,22,22,15.00
2014,09,23,22,23,15.00
2014,09,23,22,24,15.00
2014,09,23,22,25,15.00
2014,09,23,22,26,15.00
2014,09,23,22,27,15.00
2014,09,23,22,28,15.00
2014,09,23,22,29,15.00
2014,09,23,22,30,15.00
2014,09,23,22,31,15.00
2014,09,23,22,32,15.00
2014,09,23,22,33,14.90
2014,09,23,22,34,14.90
2014,09,23,22,35,14.90
2014,09,23,22,36,15.00
2014,09,23,22,37,14.90
2014,09,23,22,38,14.90
2014,09,23,22,39,14.90
2014,09,23,22,40,14.90
2014,09,23,22,41,14.90
2014,09,23,22,42,14.90
2014,09,23,22,43,14.90
2014,09,23,22,44,14.90
2014,09,23,22,45,14.90
2014,09,23,22,46,14.90
2014,09,23,22,47,14.90
2014,09,23,22,48,14.90
2014,09,23,22,49,14.90
2014,09,23,22,50,14.90
2014,09,23,22,51,14.90
2014,09,23,22,52,14.90
2014,09,23,22,53,14.90
2014,09,23,22,54,14.90
2014,09,23,22,55,14.90
2014,09,23,22,56,14.90
2014,09,23,22,57,14.90
2014,09,23,22,58,14.90
2014,09,23,22,59,14.90
2014,09,23,23,00,14.90
2014,09,23,23,01,14.90
2014,09,23,23,02,14.90
2014,09,23,23,03,14.90
2014,09,23,23,04,14.90
2014,09,23,23,05,14.90
2014,09,23,23,06,14.90
2014,09,23,23,07,14.90
2014,09,23,23,08,14.90
2014,09,23,23,09,14.90
2014,09,23,23,10,14.90
2014,09,23,23,11,14.90
2014,09,23,23,12,14.90
2014,09,23,23,13,14.90
2014,09,23,23,14,14.90
2014,09,23,23,15,14.90
2014,09,23,23,16,14.90
2014,09,23,23,17,14.90
2014,09,23,23,18,14.80
2014,09,23,23,19,14.80
2014,09,23,23,20,14.80
2014,09,23,23,21,14.80
2014,09,23,23,22,14.80
2014,09,23,23,23,14.80
2014,09,23,23,24,14.80
2014,09,23,23,25,14.80
2014,09,23,23,26,14.80
2014,09,23,23,27,14.80
2014,09,23,23,28,14.80
2014,09,23,23,29,14.80
2014,09,23,23,30,14.80
2014,09,23,23,31,14.80
2014,09,23,23,32,14.80
2014,09,23,23,33,14.80
2014,09,23,23,34,14.80
2014,09,23,23,35,14.80
2014,09,23,23,36,14.80
2014,09,23,23,37,14.80
2014,09,23,23,38,14.80
2014,09,23,23,39,14.80
2014,09,23,23,40,14.80
2014,09,23,23,41,14.80
2014,09,23,23,42,14.80
2014,09,23,23,43,14.80
2014,09,23,23,44,14.80
2014,09,23,23,45,14.80
2014,09,23,23,46,14.80
2014,09,23,23,47,14.80
2014,09,23,23,48,14.80
2014,09,23,23,49,14.80
2014,09,23,23,50,14.80
2014,09,23,23,51,14.80
2014,09,23,23,52,14.80
2014,09,23,23,53,14.80
2014,09,23,23,54,14.80
2014,09,23,23,55,14.80
2014,09,23,23,56,14.80
2014,09,23,23,57,14.80
2014,09,23,23,58,14.80
2014,09,23,23,59,14.80
